Weather History for Wittering, United Kingdom

Change the Weather History Date:

Wednesday, January 23, 2013

  Actual Average Record
Temperature  
Mean Temperature 32 °F -  
Max Temperature 32 °F 44 °F 53 °F (2001)
Min Temperature 31 °F 34 °F 26 °F (1998)
Degree Days  
Heating Degree Days 34    
Moisture  
Dew Point 29 °F    
Average Humidity 86    
Maximum Humidity 93    
Minimum Humidity 79    
Precipitation  
Precipitation 0.02 in - - ()
Sea Level Pressure  
Sea Level Pressure 29.80 in    
Wind  
Wind Speed 7 mph ()    
Max Wind Speed 9 mph    
Max Gust Speed -    
Visibility 4.4 miles    
Events Snow    
Averages and records for this station are not official NWS values.
T = Trace of Precipitation, MM = Missing Value Source: Averaged Metar Reports

Daily Weather History Graph

Daily Weather History Graph

Search for Another Location

Airport:

Trip Planner

Search our weather history database for the weather conditions in past years. The results will help you decide how hot, cold, wet, or windy it might be!

Date:

Astronomy

Jan. 23, 2013 Rise Set
Actual Time 7:56 AM GMT 4:31 PM GMT
Civil Twilight 7:18 AM GMT 5:09 PM GMT
Nautical Twilight 6:36 AM GMT 5:52 PM GMT
Astronomical Twilight 5:55 AM GMT 6:32 PM GMT
Moon 1:22 PM GMT (1/23) 5:03 AM GMT (1/23)
Length of Visible Light 9h 51m
Length of Day
8h 34m
Waxing Gibbous, 88% of the Moon is Illuminated
Jan 23
Waxing Gibbous
Jan 27
Full
Feb 3
Last Quarter
Feb 10
New
Feb 17
First Quarter

Hourly Weather History & Observations

Time (GMT) Temp. Windchill Dew Point Humidity Pressure Visibility Wind Dir Wind Speed Gust Speed Precip Events Conditions
12:50 AM 32.0 °F 24.2 °F 30.2 °F 93% 29.77 in 3.7 mi ENE 9.2 mph - N/A   Mostly Cloudy
1:50 AM 32.0 °F 24.8 °F 30.2 °F 93% 29.77 in 4.3 mi ENE 8.1 mph - N/A   Haze
2:50 AM 32 °F - 30 °F 89% 29.79 in 3 mi NE 5.8 mph - -   Light Haze
2:50 AM 32.0 °F 26.4 °F 30.2 °F 93% 29.77 in 3.1 mi NE 5.8 mph - N/A   Haze
3:50 AM 32.0 °F 26.4 °F 30.2 °F 93% 29.77 in - NE 5.8 mph - N/A   Overcast
4:50 AM 32.0 °F 26.4 °F 30.2 °F 93% 29.77 in 3.7 mi ENE 5.8 mph - N/A   Haze
5:50 AM 32 °F - 29 °F 84% 29.80 in 6 mi ENE 6.9 mph - -   Light Haze
5:50 AM 32.0 °F 25.6 °F 28.4 °F 87% 29.77 in 5.6 mi ENE 6.9 mph - N/A   Haze
6:50 AM 32.0 °F 24.8 °F 28.4 °F 87% 29.77 in 5.6 mi ENE 8.1 mph - N/A   Haze
7:50 AM 32.0 °F 25.6 °F 28.4 °F 87% 29.77 in 5.0 mi East 6.9 mph - N/A   Haze
8:50 AM 31 °F - 28 °F 83% 29.83 in 6 mi East 6.9 mph - -   Light Haze
8:50 AM 32.0 °F 25.6 °F 28.4 °F 87% 29.80 in 6.2 mi East 6.9 mph - N/A   Overcast
9:50 AM 32.0 °F 25.6 °F 26.6 °F 80% 29.80 in 6.2 mi East 6.9 mph - N/A   Overcast
10:50 AM 32.0 °F 25.6 °F 28.4 °F 87% 29.80 in 5.6 mi ENE 6.9 mph - N/A   Haze
11:50 AM 32 °F - 28 °F 79% 29.83 in 4 mi NE 9.2 mph - -   Light Haze
11:50 AM 32.0 °F 24.2 °F 28.4 °F 87% 29.80 in 3.7 mi NE 9.2 mph - N/A   Haze
12:50 PM 32.0 °F 24.2 °F 28.4 °F 87% 29.80 in 3.1 mi ENE 9.2 mph - N/A Snow Snow Grains
1:50 PM 32.0 °F 25.6 °F 26.6 °F 80% 29.80 in 5.0 mi ENE 6.9 mph - N/A   Haze
2:50 PM 32 °F - 28 °F 79% 29.82 in 4 mi ENE 6.9 mph - -   Light Haze
2:50 PM 32.0 °F 25.6 °F 28.4 °F 87% 29.80 in 4.3 mi ENE 6.9 mph - N/A   Haze
3:50 PM 32.0 °F 25.6 °F 28.4 °F 87% 29.80 in 3.7 mi ENE 6.9 mph - N/A   Haze
4:50 PM 32.0 °F 24.8 °F 28.4 °F 87% 29.80 in 3.7 mi ENE 8.1 mph - N/A   Haze
5:50 PM 32 °F - 28 °F 80% 29.83 in 4 mi ENE 6.9 mph - -   Light Haze
5:50 PM 32.0 °F 25.6 °F 28.4 °F 87% 29.80 in 3.7 mi ENE 6.9 mph - N/A   Haze
6:50 PM 32.0 °F 24.2 °F 28.4 °F 87% 29.80 in 3.7 mi ENE 9.2 mph - N/A   Haze
7:50 PM 32.0 °F 24.8 °F 28.4 °F 87% 29.80 in - ENE 8.1 mph - N/A   Haze
8:50 PM 32 °F - 29 °F 84% 29.85 in 3 mi ENE 8.1 mph - - Snow Snow
8:50 PM 32.0 °F 24.8 °F 28.4 °F 87% 29.83 in 3.1 mi ENE 8.1 mph - N/A   Haze
9:50 PM 32.0 °F 24.2 °F 28.4 °F 87% 29.83 in 4.3 mi ENE 9.2 mph - N/A   Haze
10:50 PM 32.0 °F 25.6 °F 28.4 °F 87% 29.83 in 6.2 mi ENE 6.9 mph - N/A   Mostly Cloudy
11:50 PM 32 °F - 28 °F 79% 29.88 in 4 mi NE 6.9 mph - -   Light Haze
11:50 PM 32.0 °F 25.6 °F 28.4 °F 87% 29.86 in 3.7 mi NE 6.9 mph - N/A   Haze